Regional Weather Roundup
Issued by NWS

Home | Current Version | Previous Version | Text Only | Print | Product List | Glossary Off
Versions: 1 2 3 4 5 6 7 8 9 10 11 12 13 14 15 16 17 18 19 20 21 22 23 24 25 26 27 28 29 30 31 32 33 34 35 36 37 38 39 40 41 42 43 44 45 46 47 48 49 50

000
ASUS43 KFSD 271610
RWRSD

WEATHER ROUNDUP FOR SOUTH DAKOTA
NATIONAL WEATHER SERVICE SIOUX FALLS SD
1100 AM CDT SUN JUL 27 2014

NOTE: "FAIR" INDICATES FEW OR NO CLOUDS BELOW 12,000 FEET WITH NO
SIGNIFICANT WEATHER AND/OR OBSTRUCTIONS TO VISIBILITY.


SDZ001>005-009-010-012>017-271700-
NORTHWEST AND NORTH CENTRAL SOUTH DAKOTA

CITY           SKY/WX    TMP DP  RH WIND       PRES   REMARKS
BUFFALO          N/A     68  52  56 N17G23    30.25R
FAITH            N/A     70  55  59 N17       30.26S
MOBRIDGE       CLOUDY    65  54  67 NW16G24   30.20R
$$

SDZ012>016-024>037-041>051-057-063-072>074-271700-
SOUTHWEST AND SOUTH CENTRAL SOUTH DAKOTA

CITY           SKY/WX    TMP DP  RH WIND       PRES   REMARKS
RAPID CTY ARPT SUNNY     71  50  47 N15G23    30.32R
PIERRE         SUNNY     71  56  58 NW17      30.21R
CUSTER         SUNNY     73  38  27 VRB6      30.40S
ELLSWORTH AFB  SUNNY     71  50  46 N13       30.31S
PHILIP         SUNNY     74  52  46 NW22      30.25S
PINE RIDGE     SUNNY     71  50  47 W6        30.33R
WINNER         FAIR      75  54  47 NW22G31   30.21R
$$

SDZ004>011-016>023-039-040-271700-
NORTHEAST SOUTH DAKOTA

CITY           SKY/WX    TMP DP  RH WIND       PRES   REMARKS
ABERDEEN       CLOUDY    62  54  74 NW17      30.15R
WATERTOWN      CLOUDY    64  54  69 N24G32    30.09R
SISSETON         N/A     65  57  75 N23G32    30.06R
$$

SDZ017-020-022-023-036>040-048>070-271700-
SOUTHEAST SOUTH DAKOTA

CITY           SKY/WX    TMP DP  RH WIND       PRES   REMARKS
SIOUX FALLS    MOSUNNY   68  56  65 N22G29    30.09R
HURON          PTSUNNY   69  56  62 N17G23    30.14R
CHAMBERLAIN    SUNNY     71  56  58 N18G26    30.18S
MITCHELL       PTSUNNY   69  58  67 NW18G25   30.15R
YANKTON        MOSUNNY   72  55  56 NW20G28   30.12R
$$

ABBREVIATIONS USED IN REMARKS
   TC - TEMPERATURE IN CELSIUS
  WCI - WIND CHILL INDEX
   HX - HEAT INDEX
  VSB - VISIBILITY



USA.gov is the U.S. government's official web portal to all federal, state and local government web resources and services.